[[{"header":{"parameterUnit":"m.s-1","parameterCategory":1,"la1":30.2991,"la2":30.254,"lo1":-89.0895,"lo2":-89.0444,"dy":0.0017,"dx":0.0017,"nx":28,"ny":28,"refTime":"2023-04-29T21:00:00:Z","depth":0,"parameterNumber":2,"parameterNumberName":"U-component_of_WINDS"},"data":[0,0,0,0,0,0,0,0,0,0,0,0,0,0,0,0,0,0,0,0,0,0,0,0,0,0,0,0,0,0,0,0,0,0,0,0,0,0,0,0,0,0,0,0,0,0,0,0,0,0,0,0,0,0,0,0,0,0,6.1013,6.1013,0,6.1075,6.1076,6.1077,6.1035,6.1033,6.1031,6.1029,6.1095,6.1098,6.1102,0,0,0,0,0,0,0,0,0,0,0,0,0,6.0859,6.0862,6.1013,6.1013,6.1014,6.1075,6.1076,6.1077,6.1035,6.1033,6.103,6.1028,6.1093,6.1098,6.1102,0,0,0,0,0,0,0,0,0,0,0,0,0,6.0924,6.0863,6.1012,6.1001,6.1,6.1075,6.1076,6.1077,6.1036,6.1033,6.103,6.1027,6.1092,6.1097,6.1102,6.1193,0,0,6.1119,6.1121,0,0,0,0,0,0,0,0,6.0921,6.093,6.1002,6.1002,6.1001,6.1044,6.1046,6.1116,6.1036,6.1022,6.1029,6.1026,6.108,6.1086,6.1105,6.1196,6.1199,6.1119,6.1122,6.1125,6.1126,0,0,0,0,0,0,0,6.0916,6.0927,6.1037,6.1003,6.1002,6.0993,6.0999,6.1059,6.1067,6.1023,6.102,6.1028,6.108,6.11,6.1106,6.12,6.1119,6.1124,6.1127,6.1129,6.1373,6.1376,0,0,0,0,0,0,6.0912,6.0923,6.1035,6.1039,6.0953,6.0998,6.1005,6.1033,6.1066,6.1068,6.1031,6.1026,6.1092,6.11,6.1108,6.1219,6.1125,6.113,6.1133,6.137,6.1374,6.1377,0,0,0,0,0,0,6.0909,6.0923,6.1033,6.0981,6.0994,6.1004,6.1036,6.1036,6.1056,6.1072,6.1073,6.105,6.109,6.11,6.1173,6.1221,6.1132,6.1137,6.1366,6.1371,6.1375,6.144,0,0,0,0,0,0,6.0905,6.0922,6.0955,6.0982,6.0997,6.1096,6.1039,6.1039,6.1065,6.106,6.109,6.1092,6.1088,6.1165,6.1178,6.1226,6.1141,6.1361,6.1368,6.1374,6.1434,6.1447,6.1458,0,0,0,0,0,6.09,6.0971,6.0957,6.0971,6.1039,6.1099,6.1108,6.1102,6.1069,6.1104,6.1114,6.1091,6.1213,6.1173,6.1187,6.1238,6.1358,6.1366,6.1373,6.1429,6.1444,6.1458,0,0,0,0,0,0,6.0949,6.0974,6.0959,6.1041,6.1068,6.1092,6.1135,6.1118,6.1156,6.1149,6.1141,6.1148,6.1225,6.1238,6.1193,6.1329,6.1281,6.1291,6.1318,6.1333,6.1345,6.1341,6.1145,0,0,0,0,0,6.097,6.1015,6.1034,6.1105,6.1119,6.1125,6.1151,6.1144,6.1173,6.1184,6.12,6.1229,6.1274,6.1304,6.1346,6.1435,6.1443,6.1477,6.1489,6.1499,6.1509,6.1561,6.1577,6.1401,6.1401,6.1401,0,0,6.1012,6.1031,6.1061,6.1115,6.1136,6.1185,6.1135,6.1188,6.1225,6.1192,6.1263,6.1275,6.1307,6.139,6.1426,6.1403,6.1559,6.1508,6.1516,6.1521,6.157,6.1587,6.1602,6.1407,6.1406,6.1405,0,0,6.1116,6.1133,6.1196,6.1218,6.125,6.1254,6.1269,6.1295,6.1303,6.1373,6.135,6.1395,6.1471,6.1496,6.1519,6.1635,6.1616,6.1649,6.1712,6.1763,6.1777,6.1789,6.1834,6.185,6.1658,6.1659,6.1659,0,6.1165,6.1238,6.123,6.1286,6.1312,6.1284,6.1349,6.137,6.1415,6.1434,6.1406,6.1505,6.1524,6.1614,6.1643,6.1661,6.168,6.1646,6.1775,6.1788,6.1799,6.1842,6.1858,6.1663,6.1662,6.1662,6.1661,0,6.1298,6.1349,6.1396,6.144,6.1471,6.1531,6.1534,6.1566,6.1558,6.1565,6.1639,6.1661,6.1709,6.1729,6.1721,6.1819,6.1804,6.1776,6.1728,6.182,6.186,6.1876,6.1668,6.1667,6.1666,6.1665,0,0,6.1435,6.1476,6.1493,6.1515,6.1549,6.1589,6.1649,6.1696,6.1725,6.1757,6.1809,6.1876,6.1851,6.1877,6.1872,6.1916,6.2011,6.1883,6.1884,6.1909,6.2124,6.2147,6.2166,6.1998,6.2001,6.2003,6.2123,0,6.1543,6.1647,6.1643,6.1741,6.179,6.1765,6.1818,6.1846,6.1854,6.1898,6.1907,6.1957,6.1919,6.1935,6.1977,6.199,6.2054,6.1981,6.2048,6.2051,6.2044,6.2186,6.221,6.2322,6.2138,6.2141,6.2142,0,6.1683,6.1721,6.1824,6.1854,6.1875,6.1922,6.1967,6.2008,6.204,6.2043,6.2073,6.2061,6.2124,6.2073,6.216,6.2111,6.2138,6.2149,6.2153,6.2161,6.2104,6.2201,6.2357,6.2375,6.2166,6.2164,6.2163,0,6.1777,6.1853,6.1926,6.1944,6.198,6.2015,6.2032,6.206,6.209,6.2129,6.2149,6.2194,6.222,6.2257,6.2258,6.222,6.2348,6.2296,6.2355,6.2355,6.2385,6.2383,6.255,6.2398,6.2397,6.2397,6.2397,0,6.1899,6.1964,6.1969,6.2014,6.2087,6.2082,6.2154,6.2168,6.2194,6.2243,6.2223,6.2269,6.2267,6.2315,6.2316,6.2391,6.2401,6.2408,6.2408,6.2411,6.2411,6.2431,6.2424,6.2402,6.2401,6.24,6.2399,0,6.2017,6.2022,6.2101,6.2129,6.2138,6.2191,6.2215,6.2259,6.2266,6.2328,6.2343,6.2355,6.241,6.2414,6.2477,6.2479,6.257,6.256,6.256,6.2559,6.2619,6.2615,6.2807,6.2833,6.2661,6.2662,6.2663,0,6.2097,6.2147,6.2181,6.2212,6.2231,6.2281,6.2312,6.2309,6.2342,6.2384,6.2423,6.2476,6.2519,6.2608,6.2624,6.2673,6.2666,6.273,6.2673,6.2676,6.2671,6.2669,6.2676,6.2742,6.2744,6.2745,6.2746,0,6.2239,6.2239,6.2284,6.2331,6.2369,6.2405,6.2439,6.2466,6.2468,6.2506,6.2562,6.2596,6.2661,6.2715,6.2764,6.2782,6.2767,6.2764,6.2781,6.2786,6.2785,6.279,6.2593,6.276,6.2759,6.2758,6.2757,6.2756,6.2342,6.2387,6.2419,6.247,6.2496,6.2529,6.2572,6.2586,6.2633,6.2686,6.2681,6.2745,6.2778,6.2842,6.2864,6.2914,6.2893,6.2917,6.2923,6.293,6.2938,6.2775,6.2923,6.2922,6.2922,6.2922,6.2921,0,6.2486,6.2506,6.2553,6.2603,6.2644,6.2624,6.2661,6.2698,6.2753,6.2785,6.2828,6.2895,6.2947,6.2967,6.302,6.3056,6.3051,6.3071,6.3069,6.3075,6.2952,6.2934,6.3075,6.3075,6.3075,6.3075,6.3075,6.3075,6.2566,6.2642,6.2647,6.2735,6.2754,6.2816,6.284,6.2871,6.2897,6.2972,6.3016,6.3029,6.3057,6.3111,6.316,6.3165,6.3186,6.321,6.3212,6.3098,6.3083,6.3068,6.3051,6.3214,6.3214,6.3331,6.3332,6.3333]},{"header":{"parameterUnit":"m.s-1","parameterCategory":1,"la1":30.2991,"la2":30.254,"lo1":-89.0895,"lo2":-89.0444,"dy":0.0017,"dx":0.0017,"nx":28,"ny":28,"refTime":"2023-04-29T21:00:00:Z","depth":0,"parameterNumber":3,"parameterNumberName":"V-component_of_WINDS"},"data":[0,0,0,0,0,0,0,0,0,0,0,0,0,0,0,0,0,0,0,0,0,0,0,0,0,0,0,0,0,0,0,0,0,0,0,0,0,0,0,0,0,0,0,0,0,0,0,0,0,0,0,0,0,0,0,0,0,0,-0.8555,-0.8553,0,-0.8414,-0.8413,-0.8411,-0.8459,-0.8462,-0.8465,-0.8468,-0.8314,-0.8307,-0.8301,0,0,0,0,0,0,0,0,0,0,0,0,0,-0.8856,-0.885,-0.8555,-0.8553,-0.8551,-0.8414,-0.8412,-0.841,-0.8458,-0.8462,-0.8466,-0.8469,-0.8317,-0.8308,-0.83,0,0,0,0,0,0,0,0,0,0,0,0,0,-0.8721,-0.8849,-0.8555,-0.8559,-0.8558,-0.8415,-0.8412,-0.841,-0.8457,-0.8462,-0.8467,-0.8471,-0.8319,-0.8309,-0.8299,-0.8141,0,0,-0.8267,-0.8262,0,0,0,0,0,0,0,0,-0.8729,-0.871,-0.856,-0.8558,-0.8557,-0.8459,-0.8462,-0.8319,-0.8456,-0.8495,-0.8468,-0.8473,-0.8358,-0.8345,-0.8308,-0.8133,-0.8127,-0.8266,-0.8259,-0.8255,-0.8252,0,0,0,0,0,0,0,-0.8738,-0.8716,-0.8499,-0.8558,-0.8556,-0.8565,-0.8551,-0.8436,-0.8402,-0.8492,-0.8495,-0.8479,-0.8358,-0.8318,-0.8304,-0.8125,-0.8266,-0.8257,-0.825,-0.8246,-0.7814,-0.7809,0,0,0,0,0,0,-0.8749,-0.8724,-0.8503,-0.8495,-0.8656,-0.8556,-0.854,-0.8485,-0.8403,-0.8395,-0.8475,-0.8481,-0.8333,-0.8317,-0.8299,-0.8109,-0.8255,-0.8245,-0.8239,-0.7819,-0.7813,-0.7807,0,0,0,0,0,0,-0.8756,-0.8729,-0.8509,-0.861,-0.8583,-0.8546,-0.8484,-0.848,-0.844,-0.839,-0.8384,-0.844,-0.8336,-0.8314,-0.8181,-0.8104,-0.824,-0.8231,-0.7825,-0.7817,-0.781,-0.7727,0,0,0,0,0,0,-0.8764,-0.8731,-0.8673,-0.8609,-0.8577,-0.8395,-0.8479,-0.8474,-0.8423,-0.843,-0.8356,-0.8348,-0.8338,-0.8196,-0.817,-0.8092,-0.8223,-0.7832,-0.7821,-0.7812,-0.7736,-0.7717,-0.7701,0,0,0,0,0,-0.8775,-0.8653,-0.867,-0.8643,-0.8504,-0.839,-0.8372,-0.8366,-0.8417,-0.8356,-0.8325,-0.8351,-0.8117,-0.8182,-0.8153,-0.8071,-0.7836,-0.7824,-0.7813,-0.7744,-0.7721,-0.7701,0,0,0,0,0,0,-0.8705,-0.8644,-0.8662,-0.8516,-0.8459,-0.8399,-0.8322,-0.8341,-0.8265,-0.8275,-0.8268,-0.825,-0.8113,-0.8079,-0.8152,-0.7914,-0.7984,-0.7966,-0.7941,-0.7919,-0.7902,-0.7912,-0.8214,0,0,0,0,0,-0.8673,-0.8589,-0.854,-0.8415,-0.8386,-0.8359,-0.8309,-0.831,-0.8249,-0.8223,-0.8182,-0.8118,-0.8031,-0.7973,-0.789,-0.7732,-0.7716,-0.7661,-0.7644,-0.763,-0.7614,-0.7528,-0.7503,-0.7769,-0.7769,-0.7769,0,0,-0.8605,-0.8562,-0.8509,-0.84,-0.8356,-0.8267,-0.8338,-0.824,-0.8173,-0.8207,-0.808,-0.8047,-0.7976,-0.783,-0.7763,-0.7797,-0.7537,-0.7615,-0.7604,-0.7595,-0.7513,-0.7488,-0.7466,-0.7761,-0.7762,-0.7763,0,0,-0.8437,-0.8396,-0.8289,-0.8243,-0.8176,-0.8159,-0.8134,-0.8071,-0.8052,-0.7925,-0.7949,-0.7867,-0.7717,-0.7666,-0.762,-0.7433,-0.7454,-0.7406,-0.7313,-0.723,-0.7209,-0.719,-0.7123,-0.7099,-0.7391,-0.739,-0.739,0,-0.836,-0.823,-0.823,-0.8131,-0.8082,-0.8113,-0.8003,-0.7958,-0.7865,-0.7829,-0.7869,-0.7683,-0.7636,-0.7479,-0.7434,-0.7396,-0.7365,-0.7414,-0.7212,-0.7194,-0.7176,-0.7112,-0.7087,-0.7385,-0.7386,-0.7386,-0.7387,0,-0.8138,-0.8047,-0.7968,-0.7883,-0.7825,-0.772,-0.7702,-0.7643,-0.7649,-0.7628,-0.7497,-0.7444,-0.7351,-0.7313,-0.7317,-0.7156,-0.7179,-0.7215,-0.7285,-0.7145,-0.7085,-0.7061,-0.7377,-0.7379,-0.7381,-0.7382,0,0,-0.792,-0.7838,-0.7808,-0.777,-0.7699,-0.7627,-0.7524,-0.7437,-0.7386,-0.7321,-0.7233,-0.7106,-0.714,-0.7088,-0.7086,-0.7013,-0.6868,-0.7058,-0.7056,-0.7024,-0.6687,-0.666,-0.6632,-0.6883,-0.6878,-0.6874,-0.6693,0,-0.7745,-0.7567,-0.7565,-0.74,-0.7316,-0.7345,-0.7254,-0.72,-0.7177,-0.7099,-0.7073,-0.6984,-0.7035,-0.7004,-0.6933,-0.6901,-0.68,-0.6914,-0.6798,-0.6794,-0.6815,-0.6601,-0.6571,-0.6403,-0.667,-0.6666,-0.6663,0,-0.7517,-0.7449,-0.7277,-0.722,-0.7184,-0.7103,-0.7023,-0.695,-0.6888,-0.6877,-0.682,-0.6829,-0.6721,-0.6796,-0.6647,-0.6724,-0.6677,-0.6654,-0.6647,-0.6635,-0.6719,-0.6582,-0.6349,-0.6324,-0.6626,-0.6629,-0.6632,0,-0.7375,-0.724,-0.712,-0.7086,-0.7016,-0.6959,-0.6926,-0.687,-0.6817,-0.6746,-0.6712,-0.6628,-0.6582,-0.6516,-0.6501,-0.6557,-0.6352,-0.6425,-0.6337,-0.6337,-0.6291,-0.6294,-0.6047,-0.6262,-0.6262,-0.6263,-0.6263,0,-0.7179,-0.7072,-0.7055,-0.6981,-0.6862,-0.686,-0.6741,-0.6713,-0.6662,-0.6581,-0.66,-0.6523,-0.651,-0.6429,-0.6417,-0.6295,-0.6273,-0.626,-0.6257,-0.6258,-0.6259,-0.6226,-0.6237,-0.6256,-0.6258,-0.6259,-0.626,0,-0.7,-0.6984,-0.6855,-0.6801,-0.6784,-0.6699,-0.6651,-0.6579,-0.656,-0.6457,-0.6432,-0.64,-0.6306,-0.6287,-0.6174,-0.6166,-0.6021,-0.603,-0.6043,-0.6043,-0.5957,-0.5965,-0.5678,-0.564,-0.5881,-0.5878,-0.5876,0,-0.6876,-0.6795,-0.6733,-0.6682,-0.6648,-0.6565,-0.6513,-0.6507,-0.6452,-0.6376,-0.6313,-0.6222,-0.6149,-0.5998,-0.5962,-0.5877,-0.5884,-0.5789,-0.5871,-0.5874,-0.5882,-0.5887,-0.5878,-0.5773,-0.5771,-0.5769,-0.5767,0,-0.6657,-0.6654,-0.658,-0.6503,-0.6442,-0.638,-0.6321,-0.6277,-0.6263,-0.62,-0.6106,-0.605,-0.5938,-0.5846,-0.5761,-0.5725,-0.5742,-0.5742,-0.5717,-0.5716,-0.5726,-0.5719,-0.6,-0.5748,-0.575,-0.5751,-0.5752,-0.5753,-0.6501,-0.6432,-0.6378,-0.6294,-0.6251,-0.6196,-0.6126,-0.6099,-0.6022,-0.5932,-0.5933,-0.583,-0.577,-0.5658,-0.5617,-0.5535,-0.5564,-0.5528,-0.5519,-0.551,-0.5502,-0.5741,-0.5519,-0.552,-0.552,-0.5521,-0.5521,0,-0.6284,-0.6252,-0.6176,-0.6095,-0.6029,-0.6055,-0.5992,-0.5934,-0.5845,-0.5789,-0.5718,-0.561,-0.5523,-0.5482,-0.5395,-0.5337,-0.5343,-0.5314,-0.5318,-0.5309,-0.5481,-0.5511,-0.5311,-0.5311,-0.5311,-0.5311,-0.5311,-0.5311,-0.6163,-0.6047,-0.6037,-0.5898,-0.5865,-0.5768,-0.5729,-0.5678,-0.5634,-0.5514,-0.5443,-0.5418,-0.5367,-0.5277,-0.5197,-0.5188,-0.5154,-0.5121,-0.5115,-0.5276,-0.5297,-0.5317,-0.5346,-0.5114,-0.5114,-0.495,-0.4949,-0.4948]}]]